GW2969 Weather Reports


time (UTC)temp
C
wind
direction
speed
KPH
gust
KPH
rain 1hr
cm
rain 24hr
cm
rain mn
cm
humidity
%
barometer
mb
20260506222026 22 0 0.0 3.2 0.00 0.00 0.00 65 1018.9
20260506221538 22 0 0.0 4.8 0.00 0.00 0.00 67 1018.9
20260506221028 22 115 0.0 4.8 0.00 0.00 0.00 67 1018.9
20260506220525 21 142 1.6 4.8 0.00 0.00 0.00 65 1019.0
20260506220038 22 0 1.6 4.8 0.00 0.00 0.00 65 1019.1
20260506215525 22 102 1.6 4.8 0.00 0.00 0.00 65 1019.3
20260506215028 22 0 0.0 4.8 0.00 0.00 0.00 66 1019.3
20260506214538 22 0 0.0 6.4 0.00 0.00 0.00 67 1019.3
20260506214025 21 0 0.0 6.4 0.00 0.00 0.00 69 1019.3
20260506213524 21 115 0.0 4.8 0.00 0.00 0.00 68 1019.3
20260506213048 21 145 0.0 8.0 0.00 0.00 0.00 68 1019.4
20260506212522 21 132 0.0 8.0 0.00 0.00 0.00 68 1019.5
20260506212022 21 132 1.6 8.0 0.00 0.00 0.00 68 1019.4
20260506211539 20 0 0.0 8.0 0.00 0.00 0.00 71 1019.4
20260506211027 20 129 1.6 8.0 0.00 0.00 0.00 67 1019.4
20260506210526 21 137 1.6 8.0 0.00 0.00 0.00 68 1019.4
20260506210038 21 141 1.6 6.4 0.00 0.00 0.00 67 1019.5
20260506205524 21 133 0.0 6.4 0.00 0.00 0.00 69 1019.4
20260506205028 21 130 1.6 6.4 0.00 0.00 0.00 69 1019.5
20260506204544 21 119 0.0 4.8 0.00 0.00 0.00 68 1019.5
20260506204029 21 135 0.0 6.4 0.00 0.00 0.00 69 1019.6
20260506203525 21 0 0.0 6.4 0.00 0.00 0.00 70 1019.6
20260506203038 20 124 0.0 6.4 0.00 0.00 0.00 72 1019.6
20260506202525 20 108 1.6 6.4 0.00 0.00 0.00 70 1019.8
20260506202025 20 146 1.6 6.4 0.00 0.00 0.00 69 1019.8
20260506201538 20 143 0.0 9.7 0.00 0.00 0.00 69 1019.8
20260506201025 20 137 0.0 9.7 0.00 0.00 0.00 74 1019.9
20260506200528 20 139 3.2 9.7 0.00 0.00 0.00 70 1019.9
20260506200037 20 124 0.0 6.4 0.00 0.00 0.00 73 1020.0
20260506195525 20 146 1.6 6.4 0.00 0.00 0.00 69 1020.1
20260506195025 20 139 0.0 6.4 0.00 0.00 0.00 70 1020.1
20260506194541 20 141 0.0 4.8 0.00 0.00 0.00 70 1020.1
20260506194024 20 0 1.6 4.8 0.00 0.00 0.00 69 1020.1
20260506193522 21 145 0.0 6.4 0.00 0.00 0.00 68 1020.1
20260506193040 21 0 0.0 6.4 0.00 0.00 0.00 71 1020.2
20260506192528 21 128 0.0 6.4 0.00 0.00 0.00 69 1020.2
20260506192022 21 0 1.6 6.4 0.00 0.00 0.00 70 1020.3
20260506191541 20 133 0.0 3.2 0.00 0.00 0.00 73 1020.3
20260506191022 20 138 0.0 3.2 0.00 0.00 0.00 73 1020.3
20260506190526 20 0 0.0 3.2 0.00 0.00 0.00 70 1020.4
20260506190038 20 0 0.0 3.2 0.00 0.00 0.00 72 1020.4
20260506185525 19 0 0.0 3.2 0.00 0.00 0.00 74 1020.3
20260506185026 19 123 0.0 3.2 0.00 0.00 0.00 75 1020.4
20260506184537 18 0 0.0 1.6 0.00 0.00 0.00 76 1020.4
20260506184025 18 0 0.0 3.2 0.00 0.00 0.00 77 1020.3
20260506183525 17 136 0.0 3.2 0.00 0.00 0.00 77 1020.5
20260506183039 17 130 0.0 3.2 0.00 0.00 0.00 78 1020.5
20260506182525 17 138 0.0 3.2 0.00 0.00 0.00 78 1020.5
20260506182024 17 133 0.0 3.2 0.00 0.00 0.00 77 1020.5
20260506181538 17 117 0.0 3.2 0.00 0.00 0.00 78 1020.5
20260506181026 17 124 0.0 3.2 0.00 0.00 0.00 79 1020.5
20260506180525 17 0 0.0 1.6 0.00 0.00 0.00 79 1020.4
20260506180047 17 0 0.0 1.6 0.00 0.00 0.00 78 1020.5
20260506175525 16 0 0.0 3.2 0.00 0.00 0.00 80 1020.4
20260506175028 16 0 0.0 3.2 0.00 0.00 0.00 79 1020.3
20260506174542 16 124 0.0 3.2 0.00 0.00 0.00 79 1020.4
20260506174025 16 127 0.0 1.6 0.00 0.00 0.00 80 1020.4
20260506173525 16 125 0.0 1.6 0.00 0.00 0.00 80 1020.4
20260506173039 16 132 0.0 3.2 0.00 0.00 0.00 80 1020.5
20260506172525 16 131 0.0 3.2 0.00 0.00 0.00 82 1020.4
20260506172025 15 0 0.0 3.2 0.00 0.00 0.00 82 1020.4
20260506171549 15 0 0.0 3.2 0.00 0.00 0.00 82 1020.5
20260506171025 15 0 0.0 1.6 0.00 0.00 0.00 83 1020.5
20260506170525 15 130 0.0 3.2 0.00 0.00 0.00 83 1020.5
20260506170055 15 0 0.0 3.2 0.00 0.00 0.00 83 1020.5
20260506165525 15 131 0.0 3.2 0.00 0.00 0.00 84 1020.4
20260506165025 15 0 0.0 3.2 0.00 0.00 0.00 85 1020.4
20260506164540 14 127 0.0 3.2 0.00 0.00 0.00 84 1020.5
20260506164022 14 0 0.0 1.6 0.00 0.00 0.00 85 1020.5
20260506163525 14 0 0.0 1.6 0.00 0.00 0.00 85 1020.4
20260506163057 14 0 0.0 0.0 0.00 0.00 0.00 85 1020.5
20260506162528 14 0 0.0 0.0 0.00 0.00 0.00 85 1020.5
20260506162029 13 0 0.0 1.6 0.00 0.00 0.00 85 1020.5
20260506161538 13 0 0.0 1.6 0.00 0.00 0.00 86 1020.4
20260506161025 13 0 0.0 1.6 0.00 0.00 0.00 86 1020.5
20260506160525 13 0 0.0 1.6 0.00 0.00 0.00 86 1020.5
20260506160039 13 0 0.0 0.0 0.00 0.00 0.00 87 1020.5
20260506155525 13 0 0.0 0.0 0.00 0.00 0.00 87 1020.5
20260506155025 13 0 0.0 0.0 0.00 0.00 0.00 88 1020.4
20260506154604 13 0 0.0 0.0 0.00 0.00 0.00 88 1020.5
20260506154028 12 0 0.0 0.0 0.00 0.00 0.00 89 1020.5
20260506153526 12 0 0.0 0.0 0.00 0.00 0.00 90 1020.5
20260506153049 12 0 0.0 0.0 0.00 0.00 0.00 90 1020.5
20260506152526 12 0 0.0 0.0 0.00 0.00 0.00 90 1020.4
20260506152025 12 0 0.0 0.0 0.00 0.00 0.00 91 1020.4
20260506151539 12 0 0.0 0.0 0.00 0.00 0.00 91 1020.4
20260506151021 12 0 0.0 0.0 0.00 0.00 0.00 91 1020.4
20260506150525 12 0 0.0 0.0 0.00 0.00 0.00 91 1020.4
20260506150040 12 0 0.0 0.0 0.00 0.00 0.00 91 1020.3
20260506145529 12 0 0.0 0.0 0.00 0.00 0.00 91 1020.3
20260506145025 12 0 0.0 0.0 0.00 0.00 0.00 91 1020.3
20260506144537 12 0 0.0 0.0 0.00 0.00 0.00 90 1020.4
20260506144025 11 0 0.0 0.0 0.00 0.00 0.00 90 1020.4
20260506143529 11 0 0.0 0.0 0.00 0.00 0.00 90 1020.2
20260506143047 11 0 0.0 0.0 0.00 0.00 0.00 91 1020.1
20260506142524 11 0 0.0 0.0 0.00 0.00 0.00 91 1020.2
20260506142024 11 0 0.0 0.0 0.00 0.00 0.00 91 1020.2
20260506141541 11 0 0.0 0.0 0.00 0.00 0.00 91 1020.1
20260506141025 11 0 0.0 0.0 0.00 0.00 0.00 92 1020.1
20260506140526 11 0 0.0 0.0 0.00 0.00 0.00 92 1020.0
20260506140039 11 0 0.0 0.0 0.00 0.00 0.00 92 1019.9
20260506135522 11 0 0.0 0.0 0.00 0.00 0.00 92 1019.9
20260506135025 11 0 0.0 0.0 0.00 0.00 0.00 92 1019.7
20260506134537 11 0 0.0 0.0 0.00 0.00 0.00 92 1019.8
20260506134025 11 0 0.0 0.0 0.00 0.00 0.00 92 1019.8
20260506133525 11 0 0.0 0.0 0.00 0.00 0.00 92 1019.8
20260506133040 11 0 0.0 0.0 0.00 0.00 0.00 92 1019.8
20260506132525 11 0 0.0 0.0 0.00 0.00 0.00 92 1019.8
20260506132025 11 0 0.0 0.0 0.00 0.00 0.00 92 1019.6
20260506131538 11 0 0.0 0.0 0.00 0.00 0.00 92 1019.7
20260506131027 11 0 0.0 0.0 0.00 0.00 0.00 92 1019.7
20260506130524 11 0 0.0 0.0 0.00 0.00 0.00 92 1019.6
20260506130038 11 0 0.0 0.0 0.00 0.00 0.00 92 1019.6
20260506125525 11 0 0.0 0.0 0.00 0.00 0.00 92 1019.5
20260506125028 11 0 0.0 0.0 0.00 0.00 0.00 92 1019.6
20260506124541 11 0 0.0 0.0 0.00 0.00 0.00 91 1019.5
20260506124026 11 0 0.0 0.0 0.00 0.00 0.00 91 1019.4
20260506123522 11 0 0.0 0.0 0.00 0.00 0.00 91 1019.5
20260506123040 11 0 0.0 0.0 0.00 0.00 0.00 91 1019.5
20260506122525 11 0 0.0 0.0 0.00 0.00 0.00 91 1019.4
20260506122025 11 0 0.0 0.0 0.00 0.00 0.00 91 1019.4
20260506121543 11 0 0.0 0.0 0.00 0.00 0.00 90 1019.4
20260506121025 11 0 0.0 0.0 0.00 0.00 0.00 90 1019.3
20260506120525 11 0 0.0 0.0 0.00 0.00 0.00 90 1019.3
20260506120038 11 0 0.0 0.0 0.00 0.00 0.00 90 1019.3
20260506115526 11 0 0.0 0.0 0.00 0.00 0.00 90 1019.2
20260506115025 11 0 0.0 0.0 0.00 0.00 0.00 89 1019.2
20260506114547 11 0 0.0 0.0 0.00 0.00 0.00 90 1019.3
20260506114025 11 0 0.0 1.6 0.00 0.00 0.00 90 1019.2
20260506113525 11 0 0.0 1.6 0.00 0.00 0.00 90 1019.1
20260506113039 11 0 0.0 1.6 0.00 0.00 0.00 90 1019.0
20260506112528 11 0 0.0 1.6 0.00 0.00 0.00 90 1019.0
20260506112030 11 0 0.0 1.6 0.00 0.00 0.00 90 1019.0
20260506111541 11 0 0.0 1.6 0.00 0.00 0.00 91 1019.0
20260506111022 11 0 0.0 0.0 0.00 0.00 0.00 91 1018.8
20260506110530 11 0 0.0 0.0 0.00 0.00 0.00 91 1018.9
20260506110038 11 0 0.0 0.0 0.00 0.00 0.00 91 1018.8
20260506105526 11 0 0.0 0.0 0.00 0.00 0.00 92 1018.8
20260506105025 11 0 0.0 0.0 0.00 0.00 0.00 92 1018.8
20260506104538 11 0 0.0 0.0 0.00 0.00 0.00 92 1018.7
20260506104025 11 0 0.0 0.0 0.00 0.00 0.00 93 1018.8
20260506103526 11 0 0.0 0.0 0.00 0.00 0.00 93 1018.9
20260506103038 11 0 0.0 0.0 0.00 0.00 0.00 93 1018.8
20260506102527 11 0 0.0 0.0 0.00 0.00 0.00 93 1018.7
20260506102025 11 0 0.0 0.0 0.00 0.00 0.00 93 1018.7
20260506101543 11 0 0.0 0.0 0.00 0.00 0.00 93 1018.8
20260506101026 11 0 0.0 0.0 0.00 0.00 0.00 93 1018.7
20260506100527 11 0 0.0 0.0 0.00 0.00 0.00 93 1018.7
20260506100042 11 0 0.0 0.0 0.00 0.00 0.00 93 1018.7
20260506095525 11 0 0.0 0.0 0.00 0.03 0.00 93 1018.7
20260506095025 11 0 0.0 0.0 0.00 0.03 0.00 92 1018.7
20260506094549 11 0 0.0 0.0 0.00 0.03 0.00 92 1018.7
20260506094022 11 0 0.0 0.0 0.00 0.03 0.00 92 1018.8
20260506093521 11 0 0.0 0.0 0.00 0.03 0.00 92 1018.8
20260506093038 11 0 0.0 0.0 0.00 0.03 0.00 92 1018.8
20260506092525 11 0 0.0 0.0 0.00 0.03 0.00 92 1018.7
20260506092025 11 0 0.0 0.0 0.00 0.03 0.00 92 1018.7
20260506091538 11 0 0.0 0.0 0.00 0.03 0.00 93 1018.7
20260506091025 11 0 0.0 0.0 0.00 0.03 0.00 93 1018.7
20260506090525 11 0 0.0 0.0 0.00 0.03 0.00 93 1018.6
20260506090038 11 0 0.0 0.0 0.00 0.03 0.00 93 1018.7
20260506085525 11 0 0.0 0.0 0.00 0.08 0.00 93 1018.6
20260506085025 11 0 0.0 0.0 0.00 0.08 0.00 93 1018.6
20260506084546 11 0 0.0 0.0 0.00 0.08 0.00 93 1018.7
20260506084026 11 0 0.0 0.0 0.00 0.08 0.00 93 1018.7
20260506083522 11 0 0.0 0.0 0.00 0.08 0.00 93 1018.7
20260506083042 11 0 0.0 0.0 0.00 0.08 0.00 93 1018.8
20260506082521 11 0 0.0 0.0 0.00 0.08 0.00 93 1018.8
20260506082024 11 0 0.0 1.6 0.00 0.08 0.00 93 1018.7
20260506081538 10 0 0.0 1.6 0.00 0.08 0.00 94 1018.8
20260506081023 10 0 0.0 0.0 0.00 0.08 0.00 94 1018.9
20260506080522 10 0 0.0 0.0 0.00 0.08 0.00 94 1018.7
20260506073525 10 0 0.0 0.0 0.00 0.20 0.00 93 1018.5
20260506073043 10 0 0.0 0.0 0.00 0.20 0.00 93 1018.4
20260506072525 10 0 0.0 0.0 0.00 0.20 0.00 93 1018.4
20260506072025 10 0 0.0 0.0 0.00 0.20 0.00 93 1018.4
20260506071542 10 0 0.0 0.0 0.00 0.20 0.00 92 1018.4
20260506071022 10 0 0.0 0.0 0.00 0.20 0.00 92 1018.4
20260506070525 10 0 0.0 0.0 0.00 0.20 0.00 92 1018.4
20260506062025 10 0 0.0 0.0 0.00 0.25 0.20 93 1018.2
20260506061538 10 0 0.0 0.0 0.00 0.25 0.20 93 1018.2
20260506061028 10 0 0.0 0.0 0.00 0.25 0.20 92 1018.1
20260506060526 10 0 0.0 0.0 0.00 0.25 0.20 92 1018.1
20260506051025 11 0 0.0 0.0 0.00 0.33 0.20 93 1017.8
20260506050523 11 0 0.0 0.0 0.00 0.33 0.20 93 1017.8
20260506045027 11 0 0.0 0.0 0.00 0.48 0.20 92 1017.7
20260506044545 11 0 0.0 0.0 0.00 0.48 0.20 92 1017.7
20260506044026 11 0 0.0 0.0 0.00 0.48 0.20 91 1017.6
20260506043529 11 0 0.0 0.0 0.00 0.48 0.20 91 1017.5
20260506043038 11 0 0.0 0.0 0.00 0.48 0.20 90 1017.4
20260506042525 11 0 0.0 0.0 0.00 0.48 0.20 90 1017.4
20260506042024 11 0 0.0 0.0 0.00 0.48 0.20 90 1017.4
20260506041541 11 0 0.0 0.0 0.00 0.48 0.20 90 1017.1
20260506041024 12 0 0.0 0.0 0.00 0.48 0.20 90 1017.2
20260506040524 12 0 0.0 0.0 0.00 0.48 0.20 89 1017.0
20260506040056 12 0 0.0 0.0 0.00 0.48 0.20 89 1017.0
20260506035526 12 0 0.0 0.0 0.00 0.53 0.20 89 1016.8
20260506035027 12 0 0.0 1.6 0.00 0.53 0.20 88 1016.7
20260506034538 12 0 0.0 1.6 0.00 0.53 0.20 88 1016.7
20260506034025 12 0 0.0 1.6 0.00 0.53 0.20 88 1016.5
20260506033525 12 0 0.0 1.6 0.00 0.53 0.20 88 1016.5
20260506033039 12 0 0.0 1.6 0.00 0.53 0.20 88 1016.5
20260506032525 12 0 0.0 1.6 0.00 0.53 0.20 87 1016.4
20260506032025 12 0 0.0 1.6 0.00 0.53 0.20 87 1016.3
20260506031553 13 0 0.0 1.6 0.00 0.53 0.20 87 1016.3
20260506031027 13 0 0.0 1.6 0.00 0.53 0.20 86 1016.2
20260506030527 13 0 0.0 1.6 0.00 0.53 0.20 86 1016.0
20260506030038 13 0 0.0 3.2 0.00 0.53 0.20 85 1016.1
20260506025525 13 0 0.0 3.2 0.00 0.53 0.20 84 1015.9
20260506025025 13 122 0.0 3.2 0.00 0.53 0.20 83 1016.0
20260506024540 14 125 0.0 8.0 0.00 0.53 0.20 83 1015.9
20260506024025 14 0 1.6 8.0 0.00 0.53 0.20 82 1016.0
20260506023524 15 0 0.0 6.4 0.00 0.53 0.20 80 1016.0
20260506023038 15 133 0.0 6.4 0.00 0.53 0.20 79 1016.0
20260506022525 15 0 0.0 8.0 0.00 0.53 0.20 79 1016.0
20260506022025 16 147 1.6 8.0 0.00 0.53 0.20 78 1015.9
20260506021538 16 133 0.0 11.3 0.00 0.53 0.20 78 1015.8
20260506021022 16 139 1.6 12.9 0.00 0.53 0.20 77 1015.8
20260506020527 16 100 0.0 12.9 0.00 0.53 0.20 79 1015.6
20260506020039 16 95 3.2 9.7 0.00 0.53 0.20 78 1015.6
20260506015526 16 137 1.6 4.8 0.00 0.53 0.20 78 1015.6
20260506015026 16 139 1.6 11.3 0.00 0.53 0.20 78 1015.6
20260506014537 16 0 0.0 11.3 0.00 0.53 0.20 78 1015.6
20260506014025 16 120 1.6 11.3 0.00 0.53 0.20 77 1015.6
20260506013522 17 140 1.6 9.7 0.00 0.53 0.20 77 1015.7
20260506013037 17 131 0.0 9.7 0.00 0.53 0.20 77 1015.5
20260506012525 17 137 1.6 9.7 0.00 0.53 0.20 78 1015.6
20260506012022 17 0 0.0 4.8 0.00 0.53 0.20 77 1015.6
20260506011540 16 113 0.0 6.4 0.00 0.53 0.20 79 1015.6
20260506011023 16 129 1.6 6.4 0.00 0.53 0.20 79 1015.6
20260506010525 16 143 0.0 3.2 0.00 0.53 0.20 79 1015.6
20260506010043 16 153 0.0 6.4 0.00 0.53 0.20 80 1015.5
20260506005522 16 136 0.0 6.4 0.00 0.53 0.20 79 1015.5
20260506005025 16 135 0.0 4.8 0.00 0.53 0.20 81 1015.5
20260506004538 15 112 0.0 4.8 0.00 0.53 0.20 81 1015.4
20260506004029 15 127 0.0 6.4 0.00 0.53 0.20 81 1015.3
20260506003525 16 123 0.0 6.4 0.00 0.53 0.20 80 1015.4
20260506003041 16 134 0.0 6.4 0.00 0.53 0.20 79 1015.3
20260506002525 16 155 0.0 4.8 0.00 0.53 0.20 80 1015.4
20260506002025 16 0 0.0 4.8 0.00 0.53 0.20 80 1015.3
20260506001538 16 110 0.0 4.8 0.00 0.53 0.20 81 1015.3
20260506001025 16 0 1.6 4.8 0.00 0.53 0.20 80 1015.3
20260506000524 16 0 0.0 4.8 0.00 0.53 0.20 80 1015.2
20260506000037 16 125 0.0 6.4 0.00 0.53 0.20 81 1015.2
20260505235525 16 0 0.0 8.0 0.00 0.53 0.20 80 1015.3
20260505235025 16 0 0.0 8.0 0.00 0.53 0.20 80 1015.2
20260505234540 15 0 0.0 6.4 0.00 0.53 0.20 81 1015.3
20260505234025 15 124 0.0 11.3 0.00 0.53 0.20 82 1015.2
20260505233525 15 141 1.6 11.3 0.00 0.53 0.20 82 1015.2
20260505233042 15 169 1.6 11.3 0.00 0.53 0.20 82 1015.3
20260505232526 15 124 1.6 11.3 0.00 0.53 0.20 82 1015.3
20260505232025 15 133 1.6 9.7 0.00 0.53 0.20 81 1015.3
20260505231546 15 133 0.0 9.7 0.00 0.53 0.20 82 1015.3
20260505231025 15 144 1.6 8.0 0.00 0.53 0.20 81 1015.3
20260505230521 15 125 1.6 8.0 0.00 0.53 0.20 81 1015.3
20260505230038 15 131 1.6 8.0 0.00 0.53 0.20 81 1015.3
20260505225530 15 108 1.6 8.0 0.00 0.53 0.20 80 1015.3
20260505225026 16 0 0.0 8.0 0.00 0.53 0.20 80 1015.3
20260505224539 16 118 1.6 6.4 0.00 0.53 0.20 79 1015.3
20260505224026 16 122 0.0 6.4 0.00 0.53 0.20 80 1015.3
20260505223529 16 0 0.0 8.0 0.00 0.53 0.20 80 1015.3
20260505223041 16 0 0.0 8.0 0.00 0.53 0.20 80 1015.3
20260505222528 16 0 3.2 8.0 0.00 0.53 0.20 79 1015.4